TimeEST,TemperatureF,Dew PointF,Humidity,Sea Level PressureIn,VisibilityMPH,Wind Direction,Wind SpeedMPH,Gust SpeedMPH,PrecipitationIn,Events,Conditions,WindDirDegrees,DateUTC
12:15 AM,40.8,32.9,73,30.22,10.0,South,4.6,-,N/A,Rain,Light Rain,190,2013-02-11 05:15:00
12:35 AM,39.7,34.5,82,30.22,10.0,South,3.5,-,N/A,Rain,Light Rain,190,2013-02-11 05:35:00
12:55 AM,39.2,35.2,86,30.20,10.0,Calm,Calm,-,N/A,,Overcast,0,2013-02-11 05:55:00
1:15 AM,39.4,35.6,86,30.20,10.0,Calm,Calm,-,N/A,,Overcast,0,2013-02-11 06:15:00
1:35 AM,39.7,35.6,85,30.18,10.0,South,4.6,-,N/A,,Overcast,170,2013-02-11 06:35:00
1:55 AM,40.1,35.6,84,30.17,10.0,South,4.6,-,N/A,,Overcast,170,2013-02-11 06:55:00
2:15 AM,39.6,36.9,90,30.17,7.0,South,6.9,-,N/A,,Drizzle,180,2013-02-11 07:15:00
2:35 AM,38.5,38.1,99,30.16,5.0,South,4.6,-,N/A,,Heavy Drizzle,190,2013-02-11 07:35:00
2:55 AM,37.9,37.9,100,30.16,3.0,SSW,5.8,-,N/A,,Heavy Drizzle,200,2013-02-11 07:55:00
3:15 AM,37.8,37.8,100,30.13,3.0,Calm,Calm,-,N/A,Rain,Heavy Rain,0,2013-02-11 08:15:00
3:55 AM,37.9,37.9,100,30.11,4.0,South,5.8,-,0.02,Rain,Rain,190,2013-02-11 08:55:00
4:15 AM,38.3,38.3,100,30.09,4.0,SSW,4.6,-,N/A,,Overcast,200,2013-02-11 09:15:00
4:35 AM,38.5,38.5,100,30.10,3.0,SSW,6.9,-,N/A,,Light Drizzle,200,2013-02-11 09:35:00
4:55 AM,38.5,38.5,100,30.08,5.0,South,3.5,-,N/A,,Overcast,190,2013-02-11 09:55:00
5:15 AM,38.5,38.5,100,30.07,7.0,SSW,3.5,-,N/A,,Overcast,200,2013-02-11 10:15:00
5:35 AM,38.7,38.7,100,30.07,5.0,SSW,3.5,-,N/A,,Overcast,200,2013-02-11 10:35:00
5:55 AM,38.7,38.7,100,30.05,7.0,South,3.5,-,N/A,,Overcast,190,2013-02-11 10:55:00
6:15 AM,39.0,39.0,100,30.04,7.0,South,4.6,-,N/A,,Overcast,180,2013-02-11 11:15:00
6:55 AM,39.6,39.6,100,30.03,10.0,South,8.1,-,N/A,,Overcast,180,2013-02-11 11:55:00
7:15 AM,40.6,40.6,100,30.03,10.0,South,11.5,17.3,N/A,,Overcast,190,2013-02-11 12:15:00
7:35 AM,41.4,41.4,100,30.01,10.0,South,10.4,-,N/A,,Overcast,190,2013-02-11 12:35:00
7:55 AM,41.5,41.5,100,30.00,10.0,South,10.4,-,N/A,,Overcast,180,2013-02-11 12:55:00
8:15 AM,41.4,41.4,100,29.99,10.0,South,9.2,-,N/A,,Overcast,180,2013-02-11 13:15:00
8:35 AM,41.4,41.4,100,29.99,10.0,SSW,5.8,-,N/A,,Overcast,210,2013-02-11 13:35:00
8:55 AM,42.4,42.4,100,29.99,10.0,SW,4.6,-,N/A,,Overcast,230,2013-02-11 13:55:00
9:15 AM,42.8,42.8,100,29.99,10.0,SSW,4.6,-,N/A,,Overcast,200,2013-02-11 14:15:00
9:35 AM,43.5,43.5,100,29.98,10.0,SSW,3.5,-,N/A,,Overcast,200,2013-02-11 14:35:00
9:55 AM,44.8,44.8,100,29.97,10.0,SSW,6.9,-,N/A,,Overcast,200,2013-02-11 14:55:00
10:15 AM,45.9,45.9,100,29.96,10.0,SSW,6.9,-,N/A,,Overcast,200,2013-02-11 15:15:00
10:35 AM,46.6,46.6,100,29.95,10.0,SSW,9.2,-,N/A,,Overcast,200,2013-02-11 15:35:00
10:55 AM,48.0,47.7,99,29.93,10.0,SSW,8.1,-,N/A,,Overcast,210,2013-02-11 15:55:00
11:15 AM,49.1,48.6,98,29.92,10.0,SSW,6.9,-,N/A,,Overcast,210,2013-02-11 16:15:00
11:35 AM,50.2,49.5,97,29.90,10.0,SW,4.6,-,N/A,,Overcast,220,2013-02-11 16:35:00
11:55 AM,52.2,51.1,96,29.89,10.0,SSW,10.4,-,N/A,,Overcast,210,2013-02-11 16:55:00
12:15 PM,53.8,52.2,94,29.87,10.0,SW,8.1,-,N/A,,Overcast,220,2013-02-11 17:15:00
12:35 PM,54.5,52.7,94,29.84,10.0,South,11.5,19.6,N/A,,Overcast,190,2013-02-11 17:35:00
12:55 PM,55.4,53.6,94,29.84,10.0,SSW,13.8,-,N/A,,Overcast,210,2013-02-11 17:55:00
1:15 PM,56.3,54.1,92,29.83,10.0,SW,13.8,23.0,N/A,,Overcast,220,2013-02-11 18:15:00
1:35 PM,56.3,54.0,92,29.81,10.0,SSW,11.5,20.7,N/A,,Mostly Cloudy,210,2013-02-11 18:35:00
1:55 PM,56.7,54.3,92,29.80,10.0,SSW,10.4,17.3,N/A,,Scattered Clouds,200,2013-02-11 18:55:00
2:15 PM,57.2,54.1,89,29.79,10.0,SSW,15.0,24.2,N/A,,Clear,210,2013-02-11 19:15:00
2:35 PM,57.2,54.3,90,29.78,10.0,SSW,13.8,20.7,N/A,,Clear,210,2013-02-11 19:35:00
2:55 PM,57.4,54.5,90,29.77,10.0,SSW,10.4,19.6,N/A,,Clear,210,2013-02-11 19:55:00
3:15 PM,57.6,54.5,90,29.78,10.0,SSW,9.2,17.3,N/A,,Clear,200,2013-02-11 20:15:00
3:35 PM,57.4,54.3,90,29.78,10.0,SSW,8.1,-,N/A,,Clear,200,2013-02-11 20:35:00
3:55 PM,57.6,54.5,90,29.77,10.0,SSW,9.2,-,N/A,,Clear,200,2013-02-11 20:55:00
4:15 PM,57.6,54.5,90,29.76,10.0,SSW,9.2,18.4,N/A,,Clear,200,2013-02-11 21:15:00
4:35 PM,57.6,54.3,89,29.76,10.0,SSW,10.4,18.4,N/A,,Clear,200,2013-02-11 21:35:00
4:55 PM,57.4,54.3,90,29.75,10.0,SSW,9.2,-,N/A,,Clear,200,2013-02-11 21:55:00
5:55 PM,57.0,54.9,92,29.74,10.0,SSW,12.7,20.7,N/A,,Clear,200,2013-02-11 22:55:00
6:15 PM,56.7,55.0,94,29.74,10.0,SSW,10.4,-,N/A,,Clear,200,2013-02-11 23:15:00
6:35 PM,56.8,55.0,94,29.73,10.0,SSW,10.4,20.7,N/A,,Clear,200,2013-02-11 23:35:00
6:55 PM,56.5,54.9,94,29.73,10.0,SSW,9.2,-,N/A,,Clear,210,2013-02-11 23:55:00
7:15 PM,56.7,54.9,94,29.73,10.0,SSW,10.4,16.1,N/A,,Clear,210,2013-02-12 00:15:00
7:35 PM,56.7,54.7,93,29.73,10.0,SSW,10.4,16.1,N/A,,Clear,210,2013-02-12 00:35:00
7:55 PM,56.7,54.5,92,29.73,10.0,SW,9.2,-,N/A,,Clear,220,2013-02-12 00:55:00
8:15 PM,56.8,54.3,91,29.73,10.0,SSW,9.2,-,N/A,,Clear,210,2013-02-12 01:15:00
8:35 PM,56.3,53.8,91,29.74,10.0,SSW,8.1,-,N/A,,Clear,210,2013-02-12 01:35:00
8:55 PM,56.3,53.6,91,29.74,10.0,SSW,9.2,-,N/A,,Clear,210,2013-02-12 01:55:00
9:15 PM,54.7,52.7,93,29.75,10.0,SW,5.8,-,N/A,,Clear,220,2013-02-12 02:15:00
9:35 PM,54.0,52.0,93,29.76,10.0,SW,3.5,-,N/A,,Clear,230,2013-02-12 02:35:00
9:55 PM,52.0,50.5,95,29.77,10.0,West,3.5,-,N/A,,Clear,260,2013-02-12 02:55:00
10:15 PM,49.8,47.3,91,29.77,10.0,West,4.6,-,N/A,,Clear,260,2013-02-12 03:15:00
10:35 PM,54.0,39.4,58,29.77,10.0,West,9.2,-,N/A,,Clear,260,2013-02-12 03:35:00
10:55 PM,54.3,37.0,52,29.77,10.0,West,11.5,-,N/A,,Clear,280,2013-02-12 03:55:00
11:15 PM,54.9,35.1,47,29.77,10.0,West,13.8,-,N/A,,Clear,280,2013-02-12 04:15:00
11:35 PM,54.9,33.8,45,29.79,10.0,West,5.8,-,N/A,,Clear,280,2013-02-12 04:35:00
11:55 PM,47.3,35.6,64,29.80,10.0,ESE,5.8,-,N/A,,Clear,120,2013-02-12 04:55:00